Location: Bucharest
(44.4268°N, 26.1025°E)
Time: 16:19:32
(UTC+03:00)

LO-87 - Visible Passes

Search period start: 28 June 2022 00:00
Search period end: 08 July 2022 00:00
Orbit: 454 x 468 km, 97.4° (Epoch: 28 June)

Date Brightness Start Highest point End Pass type
(mag) Time Alt. Az. Time Alt. Az. Time Alt. Az.
28 Jun ? 01:25:50 27° WNW 01:25:50 27° WNW 01:28:19 10° NW visible
29 Jun ? 00:53:59 68° NW 00:53:59 68° NW 00:57:07 10° NNW visible
30 Jun ? 00:22:06 38° ENE 00:22:08 38° ENE 00:25:22 10° N visible
30 Jun ? 01:55:59 12° WNW 01:55:59 12° WNW 01:56:58 10° WNW visible
30 Jun ? 23:50:13 16° ENE 23:50:46 17° ENE 23:53:02 10° NNE visible
01 Jul ? 01:24:06 29° WNW 01:24:06 29° WNW 01:26:36 10° NNW visible
02 Jul ? 00:52:11 69° NNW 00:52:11 69° NNW 00:55:18 10° NNW visible
03 Jul ? 00:20:16 36° ENE 00:20:16 36° ENE 00:23:29 10° N visible
03 Jul ? 01:54:08 13° WNW 01:54:08 13° WNW 01:55:15 10° WNW visible
03 Jul ? 23:48:20 15° ENE 23:48:51 16° ENE 23:51:02 10° NNE visible
04 Jul ? 01:22:12 30° WNW 01:22:12 30° WNW 01:24:44 10° NNW visible
05 Jul ? 00:50:15 68° NNW 00:50:15 68° NNW 00:53:20 10° NNW visible
06 Jul ? 00:18:16 34° ENE 00:18:16 34° ENE 00:21:26 10° N visible
06 Jul ? 01:52:08 14° WNW 01:52:08 14° WNW 01:53:22 10° NW visible
06 Jul ? 23:46:17 15° ENE 23:46:47 15° ENE 23:48:51 10° NNE visible
07 Jul ? 01:20:09 31° WNW 01:20:09 31° WNW 01:22:41 10° NNW visible
